Clinton-Sherman, OK

1:24 PM CDT on April 25, 2018 (GMT -0500)
Clinton-Sherman

Weather History for KCSM - June, 2012

Change the Weather History Date:

Friday, June 8, 2012

  Actual Average Record
Temperature  
Mean Temperature 70 °F -  
Max Temperature 86 °F 84 °F 102 °F (2011)
Min Temperature 55 °F 62 °F 54 °F (2003)
Cooling Degree Days 4    
Growing Degree Days 20 (Base 50)    
Moisture  
Dew Point 56 °F    
Average Humidity 61    
Maximum Humidity 93    
Minimum Humidity 36    
Precipitation  
Precipitation 0.00 in - - ()
Sea Level Pressure  
Sea Level Pressure 29.97 in    
Wind  
Wind Speed 5 mph (SE)    
Max Wind Speed 14 mph    
Max Gust Speed 22 mph    
Visibility 9 miles    
Events      
Averages and records for this station are not official NWS values.
T = Trace of Precipitation, MM = Missing Value Source: NWS Daily Summary

Daily Weather History Graph

Daily Weather History Graph

Search for Another Location

Airport or City:

Astronomy

Jun. 08, 2012 Rise Set
Actual Time 6:21 AM CDT 8:50 PM CDT
Civil Twilight 5:51 AM CDT 9:20 PM CDT
Nautical Twilight 5:15 AM CDT 9:57 PM CDT
Astronomical Twilight 4:34 AM CDT 10:37 PM CDT
Moon No Moon Rise 10:55 AM CDT (6/8)
Length of Visible Light 15h 28m
Length of Day
14h 29m
Waning Gibbous, 77% of the Moon is Illuminated
Jun 8
Waning Gibbous
Jun 11
Last Quarter
Jun 19
New
Jun 26
First Quarter
Jul 3
Full

Hourly Weather History & Observations

Time (CDT) Temp. Heat Index Dew Point Humidity Pressure Visibility Wind Dir Wind Speed Gust Speed Precip Events Conditions
12:53 AM 62.1 °F - 57.0 °F 84% 30.04 in 10.0 mi ESE 4.6 mph - N/A   Clear
1:53 AM 61.0 °F - 55.9 °F 83% 30.03 in 10.0 mi Calm Calm - N/A   Clear
2:53 AM 59.0 °F - 55.9 °F 90% 30.03 in 10.0 mi Calm Calm - N/A   Clear
4:53 AM 57.0 °F - 54.0 °F 89% 30.01 in 9.0 mi Calm Calm - N/A   Clear
5:53 AM 55.0 °F - 53.1 °F 93% 30.03 in 8.0 mi Calm Calm - N/A   Clear
6:53 AM 55.9 °F - 54.0 °F 93% 30.05 in 2.5 mi NNW 3.5 mph - N/A   Clear
7:25 AM 60.8 °F - 57.2 °F 88% 30.09 in 3.0 mi Calm Calm - N/A   Clear
7:53 AM 64.0 °F - 57.9 °F 80% 30.05 in 7.0 mi Calm Calm - N/A   Clear
8:53 AM 69.1 °F - 55.9 °F 63% 30.06 in 10.0 mi ENE 3.5 mph - N/A   Clear
9:53 AM 71.1 °F - 55.0 °F 57% 30.06 in 10.0 mi Calm Calm - N/A   Clear
10:53 AM 73.9 °F - 53.1 °F 48% 30.04 in 10.0 mi SSE 8.1 mph - N/A   Clear
11:53 AM 78.1 °F - 53.1 °F 42% 30.00 in 10.0 mi SSE 8.1 mph 16.1 mph N/A   Clear
12:53 PM 80.1 °F 80.1 °F 55.0 °F 42% 29.99 in 10.0 mi SE 9.2 mph 21.9 mph N/A   Clear
1:53 PM 80.1 °F 80.1 °F 55.0 °F 42% 29.97 in 10.0 mi South 10.4 mph 16.1 mph N/A   Clear
3:53 PM 84.0 °F 82.9 °F 55.0 °F 37% 29.92 in 10.0 mi SE 13.8 mph 18.4 mph N/A   Clear
4:53 PM 84.9 °F 83.6 °F 55.0 °F 36% 29.89 in 10.0 mi SSE 10.4 mph 21.9 mph N/A   Clear
5:53 PM 84.9 °F 83.6 °F 55.0 °F 36% 29.88 in 10.0 mi South 12.7 mph - N/A   Clear
6:53 PM 84.0 °F 82.9 °F 55.0 °F 37% 29.86 in 10.0 mi South 13.8 mph - N/A   Clear
7:53 PM 82.0 °F 81.6 °F 55.9 °F 41% 29.84 in 10.0 mi SSE 12.7 mph - N/A   Clear
8:53 PM 77.0 °F - 57.0 °F 50% 29.84 in 10.0 mi SSE 9.2 mph - N/A   Clear
9:53 PM 73.9 °F - 57.0 °F 55% 29.84 in 10.0 mi SE 10.4 mph - N/A   Clear
10:53 PM 72.0 °F - 57.9 °F 61% 29.86 in 10.0 mi SE 10.4 mph - N/A   Clear
11:53 PM 70.0 °F - 57.0 °F 63% 29.87 in 10.0 mi SSE 11.5 mph - N/A   Clear